OBJECT D, 67749

Orbit data source: Space-Track

You're viewing an Uncataloged Satellite

Recently launched and/or uncataloged satellites may have evolving metadata. Metadata may include but not limited to: Owner, Maufacturer, Bus, Motor, and Mission.

OBJECT D, 67749 is a Chinese satellite in SSO that was launched on Thu, 12 Feb 2026 UTC via a JIELONG-3 launch vehicle from the South China Sea Launch Area (SCSLA). Unknown objects in Earth's orbit typically refer to objects detected orbiting the Earth but have not yet been identified or cataloged. These objects could be anything from previously untracked satellites, spent rocket stages, debris from satellite collisions, or even natural meteoroids temporarily captured by Earth's gravity.

Loading next visibility...
Identifier
67749, 2026-027D
Orbit
SSO
Country
Flag of CNCN / PRC
Related business
None
Manufacturer
Unknown
Mission
Operational spacecraft
Bus & Motor
Unknown
Mass
Unknown
Launch date (UTC)
2026-02-12 (1 month ago)
Launch vehicle
JIELONG-3
Launch site
South China Sea Launch Area (SCSLA)
Object type
Unknown
Shape & HBR
Unknown
Radar Cross Section
RCS unknown

Expand to show TLE details & history
Last TLE update: 8 hours ago

TLE from 8 hours ago
0 OBJECT D
1 67749U 26027D   26071.99190352  .00010554  00000-0  51770-3 0  9992
2 67749  97.4902 200.9895 0010471 192.7082 167.3889 15.18247440  4317
Epoch: 2026-03-12T23:48Z
TLE epoch observation values (Epoch: 2026-03-12T23:48:20.464Z)
Latitude
-0.00006°
Longitude
33.2704°
Altitude
521.264 km
Speed
7.599 km/s
True Right ascension
13h 23m 57s
True Declination
0° 00' 00"
Sunlit
Object was in full shadow at epoch
Visualization orbit readout
Latitude
Unknown
Longitude
Unknown
Altitude
Unknown
Speed
Unknown
Apparent Right ascension
Unknown
Apparent Declination
Unknown
Sunlit
N/A
Visualization observer readout
Local Sidereal Time
12:11:02
Azimuth
Unknown
Elevation
Unknown
Doppler factor
Unknown
Orbital elements
Apogee altitude
515.32 km
Perigee altitude
500.898 km
Semi-major axis
6,886.246 km
Eccentricity
0.00105
Inclination
97.4902°
RAAN
200.9895°
Arg. of periapsis
192.7082°
True anomaly
167.41506°
Mean anomaly
167.3889°
Eccentric anomaly
167.40199°
Mean motion
3.79813 °/min
Orbital period
94.78 mins
BSTAR
0.0005177
Loading maneuver chart data...
Computing Atmospheric mass density...
Loading historical data...
Loading historical data...
Loading historical data...
Loading historical data...
Loading historical data...
Loading historical data...
Loading historical data...

Documentation

Showing up to 5 results
|